Location: ??
(35.4627°N, 139.3695°E)
Time: 14:44:00
(UTC+00:00)

H-2A R/B - Pass Details

Date: 25 November 2020
Orbit: 529 x 651 km, 98.3° (Epoch: 20 January)

Event Time Altitude Azimuth Distance (km) Brightness Sun altitude
Rises 20:31:46 0° 15° (NNE) 2,698 5.8 -11.6°
Reaches altitude 10° 20:33:55 10° 18° (NNE) 1,793 4.9 -11.2°
Maximum altitude 20:37:45 70° 101° (ESE) 566 2.6 -10.4°
Drops below altitude 10° 20:41:32 10° 186° (S) 1,767 5.1 -9.7°
Sets 20:43:38 0° 189° (S) 2,656 5.9 -9.3°
